Location: 5810 Zion Rd, Cleves, OH 45002, USA
(39.1922°N, 84.7113°W)
Time: 11:45:56
(UTC-05:00)

Vanguard 3 - Pass Details

Date: 19 December 2019
Orbit: 507 x 3264 km, 33.4° (Epoch: 26 January)

Event Time Altitude Azimuth Distance (km) Brightness Sun altitude
Rises 09:28:04 0° 269° (W) 3,553 10.0 13.6°
Reaches altitude 10° 09:30:13 10° 263° (W) 2,853 9.6 13.8°
Maximum altitude 09:37:05 52° 189° (S) 1,820 9.5 14.7°
Drops below altitude 10° 09:49:14 10° 119° (ESE) 4,922 12.7 16.3°
Sets 09:54:11 0° 116° (ESE) 6,347 12.9 16.9°
